Regional Weather Roundup
Issued by NWS

Home | Current Version | Previous Version | Text Only | Print | Product List | Glossary On
Versions: 1 2 3 4 5 6 7 8 9 10 11 12 13 14 15 16 17 18 19 20 21 22 23 24 25 26 27 28 29 30 31 32 33 34 35 36 37 38 39 40 41 42 43 44 45 46 47 48 49 50
000
ASUS43 KLOT 220212
RWRIL

ILLINOIS REGIONAL WEATHER ROUNDUP
NATIONAL WEATHER SERVICE CHICAGO/ROMEOVILLE IL
800 PM CST TUE FEB 21 2017

NOTE: "FAIR" INDICATES FEW OR NO CLOUDS BELOW 12,000 FEET WITH NO
SIGNIFICANT WEATHER AND/OR OBSTRUCTIONS TO VISIBILITY.

* THESE STATIONS ARE NOT UNDER NWS QUALITY CONTROL. THEY ALSO MAY NOT
  REPORT WEATHER SUCH AS PRECIPITATION OR FOG.

ILZ001-002-007-009-015-016-024-220300-
NORTHWEST ILLINOIS

CITY           SKY/WX    TMP DP  RH WIND       PRES   REMARKS
MOLINE         CLEAR     50  43  77 CALM      29.87S
STERLING*      PTCLDY    56  48  74 SE6       29.88S
SAVANNA*       CLEAR     47  44  88 CALM      29.87S
$$

ILZ003-004-008-010-011-017-018-220300-
NORTH CENTRAL ILLINOIS

CITY           SKY/WX    TMP DP  RH WIND       PRES   REMARKS
ROCKFORD       CLOUDY    55  44  66 S3        29.89F
FREEPORT*      MOCLDY    46  41  81 S3        29.90R
ROCHELLE*      CLOUDY    49  47  92 S7        29.88F
DE KALB*       CLOUDY    50  48  92 S6        29.89F
PERU*          MOCLDY    55  52  90 S8        29.90F
$$

ILZ005-006-012>014-019>023-220300-
NORTHEAST ILLINOIS

CITY           SKY/WX    TMP DP  RH WIND       PRES   REMARKS
CHICAGO-OHARE  CLOUDY    56  50  80 S8        29.89F
CHICAGO-MIDWAY MOCLDY    59  52  77 SE6       29.90S
AURORA         CLOUDY    52  50  93 S7        29.89F FOG
LANSING*       MOCLDY    51  50  97 S3        29.91S
JOLIET*        CLOUDY    53  52  97 CALM      29.91R
WAUKEGAN       PTCLDY    45  44  97 CALM      29.87F FOG
DUPAGE AIRPORT PTCLDY    49  47  93 S7        29.88F
KANKAKEE*      MOCLDY    53  52  97 CALM      29.92F
WHEELING       CLOUDY    52  47  83 SE3       29.90S
MORRIS*        MOCLDY    57  54  91 CALM      29.90S
ROMEOVILLE*    CLOUDY    55  55 100 CALM      29.91R
NORTHERLY ISL    N/A     47  45  93 SE8         N/A
$$

LMZ740>746-220300-
SOUTHERN LAKE MICHIGAN

STATION/POSITION SKY/WX   TEMP    WIND        PRES    VSBY  WAVE
                          AIR SEA DIR/SP/G                  HT/PER
                          (F)     (DEG/KT/KT) (MB)    (MI)  (FT/S)
HARRISON CRIB              44     160/ 12/ 13   N/A
BURNHAM HARBOR             48     160/  6/  9   N/A
CALUMET HARBOR             51      CALM  /  1 1012.2F
BURNS HARBOR               58     180/  6/  8 1013.2F
MICHIGAN CITY              57     130/  4/  5   N/A
$$

ILZ025>027-034>036-040-047-049-050-058-095>099-220300-
WEST-CENTRAL ILLINOIS

CITY           SKY/WX    TMP DP  RH WIND       PRES   REMARKS
QUINCY         PTCLDY    59  56  89 S5        29.89F
GALESBURG*     CLEAR     54  52  92 S6        29.89S
MACOMB*        MOCLDY    54  53  96 S6        29.92F
JACKSONVILLE*  CLOUDY    60  56  89 CALM      29.92F
PITTSFIELD*    MOCLDY    58  57  97 CALM      29.92F FOG
$$

ILZ028>032-037-038-041>044-048-051>054-059>061-220300-
CENTRAL ILLINOIS

CITY           SKY/WX    TMP DP  RH WIND       PRES   REMARKS
PONTIAC        PTCLDY    58  56  94 S6        29.93S
BLOOMINGTON    CLOUDY    58  56  93 S5        29.93F
DECATUR        CLOUDY    55  53  93 NE3       29.93F FOG
PEORIA         PTCLDY    59  55  87 S9        29.91F
LACON*         PTCLDY    58  55  92 SE6       29.90F
LINCOLN*       CLOUDY    60  59  97 CALM      29.93S
SPRINGFIELD    CLOUDY    60  57  89 CALM      29.92F
TAYLORVILLE    MOCLDY    55  54  99 N3        29.94R FOG
$$

ILZ033-039-045-046-055>057-062-063-220300-
EAST-CENTRAL ILLINOIS

CITY           SKY/WX    TMP DP  RH WIND       PRES   REMARKS
CHAMPAIGN      CLOUDY    56  52  86 E3        29.94S
RANTOUL*       CLOUDY    59  56  88 SE3       29.94S
MATTOON        CLOUDY    57  53  86 CALM      29.93S
PARIS*         CLOUDY    53  51  94 SE3       29.95S
$$

ILZ079-100>102-220300-
SOUTHWEST ILLINOIS

CITY           SKY/WX    TMP DP  RH WIND       PRES   REMARKS
ALTON          MOCLDY    55  54  94 E6        29.90F
BELLEVILLE     CLOUDY    56  55  99 N3        29.92S
CAHOKIA*       PTCLDY    57  52  83 SE5       29.91F
SPARTA*        CLOUDY    58  54  86 NE3       29.92F
$$

ILZ064>066-069>071-074>076-080>082-084>086-088>090-092>094-220300-
SOUTH-CENTRAL ILLINOIS

CITY           SKY/WX    TMP DP  RH WIND       PRES   REMARKS
CARBONDALE     PTCLDY    59  55  87 SE12      29.90F
CAIRO*         CLOUDY    56  55  96 N3        29.92R
EFFINGHAM*     CLOUDY    55  55  99 CALM      29.95S
MARION         CLOUDY    59  55  88 SE6       29.92F
MT. VERNON     CLOUDY    58  53  84 CALM      29.92F
CENTRALIA*     CLOUDY    58  55  87 CALM      29.92S
SALEM*         CLOUDY    59  53  82 CALM      29.93S
METROPOLIS*    CLOUDY    60  56  88 CALM      29.93R
$$

ILZ067-068-072-073-078-083-087-091-220300-
SOUTHEAST ILLINOIS

CITY           SKY/WX    TMP DP  RH WIND       PRES   REMARKS
LAWRENCEVILLE  CLOUDY    56  55  97 E7        29.94F FOG
FLORA*         CLOUDY    58  55  92 CALM      29.93S
FAIRFIELD*     MOCLDY    57  55  92 N3        29.91F
HARRISBURG*    MOCLDY    56  55  95 CALM      29.93F
ROBINSON*      MOCLDY    55  54  94 SE5       29.95S
CARMI*         CLOUDY    58  55  89 CALM      29.92S
$$

ABBREVIATIONS USED IN REMARKS
   TC - TEMPERATURE IN CELSIUS
  WCI - WIND CHILL INDEX
   HX - HEAT INDEX
  VSB - VISIBILITY
$$




USA.gov is the U.S. government's official web portal to all federal, state and local government web resources and services.